Location: Peebles
(55.6412°N, 3.1714°W)
Time: 07:50:21
(UTC+01:00)

ATLAS 5 CENTAUR R/B - Pass Details

Date: 30 January 2022
Orbit: 335 x 13907 km, 60.8° (Epoch: 27 May)

Event Time Altitude Azimuth Distance (km) Brightness Sun altitude
Rises 05:12:50 0° 214° (SSW) 18,666 9.2 -24.8°
Reaches altitude 10° 05:35:01 10° 217° (SW) 16,039 8.8 -21.6°
Maximum altitude 06:33:21 83° 143° (SE) 3,504 5.8 -13.5°
Drops below altitude 10° 06:43:49 10° 58° (ENE) 3,811 6.7 -12.0°
Sets 06:45:36 0° 58° (ENE) 4,324 7.1 -11.8°
